,,Stat6,,Stat2,,Stat8,,Stat9,,Stat10,,Wind1,,Wind1,
time,status,PA1M_AVG,status,PR1M_SUM,status,RH1M_AVG,status,SR1M_AVG,status,TA1M_AVG,status,W1dAve1m,status,W1sAve1m,
2003-12-14, 00:00:00,VALID,918.222,VALID,0,VALID,91.5415,VALID,-0.0169808,VALID,19.4632,VALID,118,VALID,1.85429,
2003-12-14, 00:01:00,VALID,918.207,VALID,0,VALID,91.7501,VALID,-0.0339617,VALID,19.4306,VALID,115,VALID,1.72372,
2003-12-14, 00:02:00,VALID,918.2,VALID,0,VALID,91.9141,VALID,0,VALID,19.4147,VALID,121,VALID,1.90662,
2003-12-14, 00:03:00,VALID,918.188,VALID,0,VALID,91.9993,VALID,0.0169808,VALID,19.4053,VALID,129,VALID,1.44851,
2003-12-14, 00:04:00,VALID,918.178,VALID,0,VALID,92.0515,VALID,-0.0339617,VALID,19.3949,VALID,100,VALID,1.45815,
2003-12-14, 00:05:00,VALID,918.172,VALID,0,VALID,92.1659,VALID,0,VALID,19.3723,VALID,132,VALID,1.22781,
2003-12-14, 00:06:00,VALID,918.169,VALID,0,VALID,92.115,VALID,0,VALID,19.3559,VALID,112,VALID,1.66921,
2003-12-14, 00:07:00,VALID,918.17,VALID,0,VALID,92.1761,VALID,0.0169808,VALID,19.3335,VALID,114,VALID,1.39542,
2003-12-14, 00:08:00,VALID,918.164,VALID,0,VALID,92.0298,VALID,0,VALID,19.337,VALID,127,VALID,1.41146,
2003-12-14, 00:09:00,VALID,918.158,VALID,0,VALID,92.0883,VALID,0,VALID,19.3469,VALID,102,VALID,1.29833,
2003-12-14, 00:10:00,VALID,918.149,VALID,0,VALID,92.1977,VALID,0,VALID,19.3402,VALID,110,VALID,1.44336,
2003-12-14, 00:11:00,VALID,918.147,VALID,0,VALID,92.2168,VALID,0,VALID,19.3069,VALID,125,VALID,1.38517,
2003-12-14, 00:12:00,VALID,918.141,VALID,0,VALID,92.1824,VALID,0,VALID,19.3141,VALID,113,VALID,1.65447,
2003-12-14, 00:13:00,VALID,918.14,VALID,0,VALID,92.082,VALID,0,VALID,19.3176,VALID,119,VALID,1.94785,
2003-12-14, 00:14:00,VALID,918.132,VALID,0,VALID,91.909,VALID,0,VALID,19.3238,VALID,99,VALID,1.29576,
2003-12-14, 00:15:00,VALID,918.123,VALID,0,VALID,91.9383,VALID,0,VALID,19.3404,VALID,104,VALID,1.13681,
2003-12-14, 00:16:00,VALID,918.118,VALID,0,VALID,91.9612,VALID,0,VALID,19.3303,VALID,94,VALID,0.73952,
2003-12-14, 00:17:00,VALID,918.112,VALID,0,VALID,91.6344,VALID,0,VALID,19.3176,VALID,125,VALID,1.26004,
2003-12-14, 00:18:00,VALID,918.113,VALID,0,VALID,91.3114,VALID,0.0169808,VALID,19.3337,VALID,107,VALID,1.3141,
2003-12-14, 00:19:00,VALID,918.099,VALID,0,VALID,91.0558,VALID,-0.0169808,VALID,19.3566,VALID,124,VALID,1.87574,
2003-12-14, 00:20:00,VALID,918.101,VALID,0,VALID,91.1156,VALID,0,VALID,19.3688,VALID,117,VALID,1.49579,
2003-12-14, 00:21:00,VALID,918.086,VALID,0,VALID,90.6285,VALID,0,VALID,19.3983,VALID,139,VALID,1.99123,
2003-12-14, 00:22:00,VALID,918.092,VALID,0,VALID,90.3628,VALID,-0.0169808,VALID,19.46,VALID,97,VALID,1.36217,
2003-12-14, 00:23:00,VALID,918.116,VALID,0,VALID,90.4149,VALID,0,VALID,19.4826,VALID,90,VALID,1.10565,
2003-12-14, 00:24:00,VALID,918.107,VALID,0,VALID,90.4378,VALID,0,VALID,19.4632,VALID,106,VALID,1.59704,
2003-12-14, 00:25:00,VALID,918.13,VALID,0,VALID,90.0868,VALID,0,VALID,19.4724,VALID,118,VALID,1.68862,
2003-12-14, 00:26:00,VALID,918.137,VALID,0,VALID,89.7498,VALID,0,VALID,19.5246,VALID,116,VALID,1.78561,
2003-12-14, 00:27:00,VALID,918.136,VALID,0,VALID,89.7066,VALID,-0.0169808,VALID,19.5601,VALID,116,VALID,1.65262,
2003-12-14, 00:28:00,VALID,918.138,VALID,0,VALID,89.6939,VALID,-0.0169808,VALID,19.5633,VALID,105,VALID,1.29759,
2003-12-14, 00:29:00,VALID,918.137,VALID,0,VALID,89.6443,VALID,-0.0339617,VALID,19.5598,VALID,127,VALID,1.93928,
2003-12-14, 00:30:00,VALID,918.125,VALID,0,VALID,89.2425,VALID,0,VALID,19.5829,VALID,131,VALID,2.06632,
2003-12-14, 00:31:00,VALID,918.124,VALID,0,VALID,89.4637,VALID,-0.0169808,VALID,19.6083,VALID,106,VALID,1.69158,
2003-12-14, 00:32:00,VALID,918.121,VALID,0,VALID,89.4574,VALID,-0.0169808,VALID,19.5926,VALID,133,VALID,1.66531,
2003-12-14, 00:33:00,VALID,918.116,VALID,0,VALID,89.2183,VALID,0,VALID,19.5924,VALID,114,VALID,2.17073,
2003-12-14, 00:34:00,VALID,918.122,VALID,0,VALID,88.9882,VALID,-0.0339617,VALID,19.6247,VALID,110,VALID,2.31387,
2003-12-14, 00:35:00,VALID,918.113,VALID,0,VALID,88.5444,VALID,-0.0169808,VALID,19.6503,VALID,137,VALID,2.58379,
2003-12-14, 00:36:00,VALID,918.113,VALID,0,VALID,88.4198,VALID,-0.0169808,VALID,19.7156,VALID,125,VALID,2.00426,
2003-12-14, 00:37:00,VALID,918.107,VALID,0,VALID,88.7173,VALID,-0.0339617,VALID,19.7318,VALID,93,VALID,1.25632,
2003-12-14, 00:38:00,VALID,918.1,VALID,0,VALID,88.6321,VALID,-0.0169808,VALID,19.689,VALID,118,VALID,1.68255,
2003-12-14, 00:39:00,VALID,918.103,VALID,0,VALID,88.9119,VALID,-0.0169808,VALID,19.6702,VALID,98,VALID,1.28449,
2003-12-14, 00:40:00,VALID,918.097,VALID,0,VALID,88.964,VALID,-0.0169808,VALID,19.6376,VALID,104,VALID,1.64862,
2003-12-14, 00:41:00,VALID,918.097,VALID,0,VALID,88.8025,VALID,-0.0339617,VALID,19.6277,VALID,87,VALID,1.53398,
2003-12-14, 00:42:00,VALID,918.068,VALID,0,VALID,88.8979,VALID,-0.0339617,VALID,19.6346,VALID,88,VALID,1.72793,
2003-12-14, 00:43:00,VALID,918.067,VALID,0,VALID,88.5164,VALID,-0.0169808,VALID,19.621,VALID,112,VALID,1.77248,
2003-12-14, 00:44:00,VALID,918.058,VALID,0,VALID,88.6219,VALID,-0.0169808,VALID,19.6766,VALID,106,VALID,1.46076,
2003-12-14, 00:45:00,VALID,918.043,VALID,0,VALID,88.9309,VALID,0,VALID,19.654,VALID,76,VALID,1.16051,
2003-12-14, 00:46:00,VALID,918.035,VALID,0,VALID,88.8139,VALID,0,VALID,19.618,VALID,114,VALID,1.66152,
2003-12-14, 00:47:00,VALID,918.024,VALID,0,VALID,88.6219,VALID,0,VALID,19.6277,VALID,113,VALID,1.89609,
2003-12-14, 00:48:00,VALID,918.025,VALID,0,VALID,88.9081,VALID,0,VALID,19.6408,VALID,85,VALID,1.6486,
2003-12-14, 00:49:00,VALID,918.027,VALID,0,VALID,89.109,VALID,-0.0339617,VALID,19.612,VALID,86,VALID,1.43129,
2003-12-14, 00:50:00,VALID,918.03,VALID,0,VALID,89.3874,VALID,-0.0169808,VALID,19.5596,VALID,78,VALID,1.35472,
2003-12-14, 00:51:00,VALID,918.026,VALID,0,VALID,89.6023,VALID,-0.0169808,VALID,19.5275,VALID,74,VALID,1.0173,
2003-12-14, 00:52:00,VALID,918.034,VALID,0,VALID,89.3658,VALID,0,VALID,19.4821,VALID,82,VALID,1.54649,
2003-12-14, 00:53:00,VALID,918.027,VALID,0,VALID,89.5985,VALID,-0.0169808,VALID,19.4858,VALID,84,VALID,0.864462,
2003-12-14, 00:54:00,VALID,918.021,VALID,0,VALID,89.6418,VALID,-0.0169808,VALID,19.4495,VALID,93,VALID,1.13157,
2003-12-14, 00:55:00,VALID,918.016,VALID,0,VALID,89.802,VALID,-0.0169808,VALID,19.4468,VALID,96,VALID,0.753227,
2003-12-14, 00:56:00,VALID,918.009,VALID,0,VALID,89.9291,VALID,-0.0339617,VALID,19.4277,VALID,113,VALID,0.992733,
2003-12-14, 00:57:00,VALID,917.996,VALID,0,VALID,89.9444,VALID,-0.0169808,VALID,19.4147,VALID,122,VALID,1.318,
2003-12-14, 00:58:00,VALID,917.977,VALID,0,VALID,89.6469,VALID,-0.0169808,VALID,19.4115,VALID,118,VALID,1.71875,
2003-12-14, 00:59:00,VALID,917.969,VALID,0,VALID,89.226,VALID,-0.0339617,VALID,19.444,VALID,118,VALID,2.16563,
2003-12-14, 01:00:00,VALID,917.964,VALID,0,VALID,89.1624,VALID,-0.0169808,VALID,19.4826,VALID,131,VALID,1.71094,
2003-12-14, 01:01:00,VALID,917.955,VALID,0,VALID,89.0848,VALID,0.0169808,VALID,19.4786,VALID,117,VALID,1.22786,
2003-12-14, 01:02:00,VALID,917.942,VALID,0,VALID,88.7402,VALID,0,VALID,19.5149,VALID,113,VALID,1.50568,
2003-12-14, 01:03:00,VALID,917.948,VALID,0,VALID,88.7783,VALID,0,VALID,19.5308,VALID,90,VALID,0.804142,
2003-12-14, 01:04:00,VALID,917.942,VALID,0,VALID,88.6868,VALID,0,VALID,19.5308,VALID,135,VALID,1.11504,
2003-12-14, 01:05:00,VALID,917.926,VALID,0,VALID,88.7694,VALID,0,VALID,19.5248,VALID,120,VALID,1.15313,
2003-12-14, 01:06:00,VALID,917.925,VALID,0,VALID,88.7936,VALID,-0.0169808,VALID,19.5084,VALID,127,VALID,1.20141,
2003-12-14, 01:07:00,VALID,917.903,VALID,0,VALID,88.8674,VALID,0.0169808,VALID,19.4793,VALID,125,VALID,0.903832,
2003-12-14, 01:08:00,VALID,917.893,VALID,0,VALID,89.0568,VALID,0,VALID,19.4535,VALID,127,VALID,1.14751,
2003-12-14, 01:09:00,VALID,917.887,VALID,0,VALID,89.067,VALID,0,VALID,19.4341,VALID,135,VALID,1.63976,
2003-12-14, 01:10:00,VALID,917.863,VALID,0,VALID,89.0975,VALID,0,VALID,19.4239,VALID,149,VALID,1.4416,
2003-12-14, 01:11:00,VALID,917.855,VALID,0,VALID,89.0505,VALID,0,VALID,19.4239,VALID,103,VALID,1.16667,
2003-12-14, 01:12:00,VALID,917.838,VALID,0,VALID,89.2094,VALID,0,VALID,19.4277,VALID,144,VALID,1.16584,
2003-12-14, 01:13:00,VALID,917.825,VALID,0,VALID,89.3671,VALID,0,VALID,19.4279,VALID,127,VALID,1.38132,
2003-12-14, 01:14:00,VALID,917.819,VALID,0,VALID,89.5184,VALID,0,VALID,19.3954,VALID,132,VALID,1.05934,
2003-12-14, 01:15:00,VALID,917.808,VALID,0,VALID,89.6481,VALID,-0.0339617,VALID,19.3762,VALID,148,VALID,1.15777,
2003-12-14, 01:16:00,VALID,917.795,VALID,0,VALID,89.6278,VALID,0,VALID,19.337,VALID,155,VALID,1.38243,
2003-12-14, 01:17:00,VALID,917.789,VALID,0,VALID,89.5706,VALID,-0.0169808,VALID,19.3434,VALID,133,VALID,1.26835,
2003-12-14, 01:18:00,VALID,917.79,VALID,0,VALID,89.6621,VALID,0,VALID,19.3474,VALID,127,VALID,0.9133,
2003-12-14, 01:19:00,VALID,917.797,VALID,0,VALID,89.7867,VALID,-0.0169808,VALID,19.3243,VALID,129,VALID,1.08523,
2003-12-14, 01:20:00,VALID,917.783,VALID,0,VALID,89.4777,VALID,0,VALID,19.2987,VALID,89,VALID,1.25457,
2003-12-14, 01:21:00,VALID,917.77,VALID,0,VALID,89.3073,VALID,0,VALID,19.3114,VALID,119,VALID,1.02362,
2003-12-14, 01:22:00,VALID,917.762,VALID,0,VALID,89.3124,VALID,-0.0169808,VALID,19.3312,VALID,107,VALID,0.923913,
2003-12-14, 01:23:00,VALID,917.755,VALID,0,VALID,89.4129,VALID,0,VALID,19.3243,VALID,130,VALID,1.23761,
2003-12-14, 01:24:00,VALID,917.737,VALID,0,VALID,89.685,VALID,0.0169808,VALID,19.292,VALID,109,VALID,1.07965,
2003-12-14, 01:25:00,VALID,917.73,VALID,0,VALID,89.8834,VALID,-0.0169808,VALID,19.2532,VALID,110,VALID,1.1803,
2003-12-14, 01:26:00,VALID,917.727,VALID,0,VALID,90.0652,VALID,-0.0169808,VALID,19.2336,VALID,111,VALID,0.949033,
2003-12-14, 01:27:00,VALID,917.736,VALID,0,VALID,90.2509,VALID,0,VALID,19.2147,VALID,116,VALID,0.95585,
2003-12-14, 01:28:00,VALID,917.728,VALID,0,VALID,90.4111,VALID,0,VALID,19.1693,VALID,125,VALID,0.971294,
2003-12-14, 01:29:00,VALID,917.724,VALID,0,VALID,90.5853,VALID,-0.0339617,VALID,19.1437,VALID,106,VALID,1.13554,
2003-12-14, 01:30:00,VALID,917.734,VALID,0,VALID,90.8574,VALID,0,VALID,19.1111,VALID,74,VALID,0.867188,
2003-12-14, 01:31:00,VALID,917.714,VALID,0,VALID,91.2262,VALID,-0.0339617,VALID,19.0694,VALID,86,VALID,0.866097,
2003-12-14, 01:32:00,VALID,917.722,VALID,0,VALID,91.2999,VALID,-0.0339617,VALID,19.0634,VALID,115,VALID,1.42578,
2003-12-14, 01:33:00,VALID,917.724,VALID,0,VALID,91.2758,VALID,-0.0169808,VALID,19.0731,VALID,129,VALID,1.15048,
2003-12-14, 01:34:00,VALID,917.707,VALID,0,VALID,91.2898,VALID,-0.0339617,VALID,19.0401,VALID,131,VALID,0.979469,
2003-12-14, 01:35:00,VALID,917.714,VALID,0,VALID,91.4309,VALID,-0.0509425,VALID,19.05,VALID,123,VALID,0.985828,
2003-12-14, 01:36:00,VALID,917.697,VALID,0,VALID,91.525,VALID,0,VALID,19.0438,VALID,128,VALID,1.07232,
2003-12-14, 01:37:00,VALID,917.702,VALID,0,VALID,91.5759,VALID,-0.0169808,VALID,19.0339,VALID,123,VALID,0.891533,
2003-12-14, 01:38:00,VALID,917.691,VALID,0,VALID,91.6649,VALID,0,VALID,19.0145,VALID,131,VALID,0.598633,
2003-12-14, 01:39:00,VALID,917.644,VALID,0,VALID,91.7336,VALID,0,VALID,19.0085,VALID,145,VALID,1.24814,
2003-12-14, 01:40:00,VALID,917.641,VALID,0,VALID,91.7297,VALID,-0.0509425,VALID,19.0117,VALID,132,VALID,1.03553,
2003-12-14, 01:41:00,VALID,917.631,VALID,0,VALID,90.5675,VALID,-0.0509425,VALID,19.0276,VALID,119,VALID,1.5867,
2003-12-14, 01:42:00,VALID,917.655,VALID,0,VALID,90.6768,VALID,-0.0339617,VALID,19.0796,VALID,83,VALID,1.20889,
2003-12-14, 01:43:00,VALID,917.638,VALID,0,VALID,90.7163,VALID,-0.0339617,VALID,19.0982,VALID,123,VALID,1.13481,
2003-12-14, 01:44:00,VALID,917.639,VALID,0,VALID,90.8078,VALID,-0.0509425,VALID,19.1375,VALID,128,VALID,1.12305,
2003-12-14, 01:45:00,VALID,917.657,VALID,0,VALID,90.9299,VALID,-0.0169808,VALID,19.1469,VALID,113,VALID,0.795873,
2003-12-14, 01:46:00,VALID,917.663,VALID,0,VALID,91.1168,VALID,0,VALID,19.1303,VALID,98,VALID,0.601381,
2003-12-14, 01:47:00,VALID,917.662,VALID,0,VALID,91.3241,VALID,0,VALID,19.1014,VALID,63,VALID,0.386161,
2003-12-14, 01:48:00,VALID,917.664,VALID,0,VALID,91.4627,VALID,-0.0339617,VALID,19.0957,VALID,76,VALID,0.924293,
2003-12-14, 01:49:00,VALID,917.663,VALID,0,VALID,91.567,VALID,-0.0509425,VALID,19.0823,VALID,94,VALID,0.83689,
2003-12-14, 01:50:00,VALID,917.662,VALID,0,VALID,91.5326,VALID,-0.0339617,VALID,19.0627,VALID,131,VALID,0.967115,
2003-12-14, 01:51:00,VALID,917.653,VALID,0,VALID,91.5517,VALID,0,VALID,19.092,VALID,139,VALID,1.02269,
2003-12-14, 01:52:00,VALID,917.647,VALID,0,VALID,91.5708,VALID,-0.0509425,VALID,19.1019,VALID,86,VALID,0.921875,
2003-12-14, 01:53:00,VALID,917.649,VALID,0,VALID,91.614,VALID,-0.0849042,VALID,19.0858,VALID,102,VALID,0.864702,
2003-12-14, 01:54:00,VALID,917.645,VALID,0,VALID,91.7068,VALID,-0.0849042,VALID,19.0763,VALID,112,VALID,0.748264,
2003-12-14, 01:55:00,VALID,917.62,VALID,0,VALID,91.787,VALID,-0.0339617,VALID,19.0629,VALID,125,VALID,0.97603,
2003-12-14, 01:56:00,VALID,917.61,VALID,0,VALID,91.8111,VALID,-0.0169808,VALID,19.0699,VALID,125,VALID,1.38262,
2003-12-14, 01:57:00,VALID,917.604,VALID,0,VALID,91.8798,VALID,-0.0509425,VALID,19.057,VALID,122,VALID,1.26332,
2003-12-14, 01:58:00,VALID,917.586,VALID,0,VALID,91.951,VALID,-0.0339617,VALID,19.0535,VALID,135,VALID,1.36009,
2003-12-14, 01:59:00,VALID,917.568,VALID,0,VALID,92.0553,VALID,0,VALID,19.0503,VALID,116,VALID,1.17355,
2003-12-14, 02:00:00,VALID,917.555,VALID,0,VALID,92.2269,VALID,-0.0509425,VALID,19.0378,VALID,129,VALID,0.850761,
2003-12-14, 02:01:00,VALID,917.555,VALID,0,VALID,92.3935,VALID,-0.0679233,VALID,19.0048,VALID,110,VALID,1.1452,
2003-12-14, 02:02:00,VALID,917.545,VALID,0,VALID,92.4965,VALID,-0.0679233,VALID,18.9859,VALID,122,VALID,0.886719,
2003-12-14, 02:03:00,VALID,917.526,VALID,0,VALID,92.6059,VALID,-0.0679233,VALID,18.9663,VALID,120,VALID,1.18945,
2003-12-14, 02:04:00,VALID,917.51,VALID,0,VALID,92.5639,VALID,-0.0849042,VALID,18.9764,VALID,125,VALID,1.52986,
2003-12-14, 02:05:00,VALID,917.495,VALID,0,VALID,92.4609,VALID,-0.0849042,VALID,18.9764,VALID,136,VALID,1.29473,
2003-12-14, 02:06:00,VALID,917.482,VALID,0,VALID,92.2257,VALID,-0.0679233,VALID,18.9958,VALID,132,VALID,1.50381,
2003-12-14, 02:07:00,VALID,917.461,VALID,0,VALID,92.0464,VALID,-0.0509425,VALID,19.0147,VALID,129,VALID,1.93862,
2003-12-14, 02:08:00,VALID,917.458,VALID,0,VALID,91.8887,VALID,-0.0679233,VALID,19.0537,VALID,133,VALID,1.51111,
2003-12-14, 02:09:00,VALID,917.434,VALID,0,VALID,91.8505,VALID,-0.0509425,VALID,19.0528,VALID,133,VALID,1.22899,
2003-12-14, 02:10:00,VALID,917.432,VALID,0,VALID,91.7755,VALID,-0.0679233,VALID,19.0733,VALID,136,VALID,1.5456,
2003-12-14, 02:11:00,VALID,917.408,VALID,0,VALID,91.642,VALID,-0.0679233,VALID,19.1026,VALID,142,VALID,1.94624,
2003-12-14, 02:12:00,VALID,917.391,VALID,0,VALID,91.5047,VALID,-0.0509425,VALID,19.1285,VALID,138,VALID,1.66193,
2003-12-14, 02:13:00,VALID,917.38,VALID,0,VALID,91.3037,VALID,-0.0339617,VALID,19.134,VALID,109,VALID,1.58358,
2003-12-14, 02:14:00,VALID,917.368,VALID,0,VALID,91.3266,VALID,-0.0509425,VALID,19.1603,VALID,127,VALID,1.45998,
2003-12-14, 02:15:00,VALID,917.347,VALID,0,VALID,91.3292,VALID,0,VALID,19.1501,VALID,133,VALID,1.5069,
2003-12-14, 02:16:00,VALID,917.345,VALID,0,VALID,91.3165,VALID,-0.0169808,VALID,19.1605,VALID,122,VALID,1.91139,
2003-12-14, 02:17:00,VALID,917.323,VALID,0,VALID,91.3979,VALID,-0.0679233,VALID,19.1538,VALID,137,VALID,1.98971,
2003-12-14, 02:18:00,VALID,917.296,VALID,0,VALID,91.4246,VALID,-0.0339617,VALID,19.1476,VALID,145,VALID,1.75521,
2003-12-14, 02:19:00,VALID,917.295,VALID,0,VALID,91.4958,VALID,-0.0339617,VALID,19.1211,VALID,134,VALID,1.55705,
2003-12-14, 02:20:00,VALID,917.286,VALID,0,VALID,91.4983,VALID,-0.0339617,VALID,19.1186,VALID,130,VALID,1.41771,
2003-12-14, 02:21:00,VALID,917.264,VALID,0,VALID,91.4627,VALID,-0.0509425,VALID,19.0885,VALID,122,VALID,1.64918,
2003-12-14, 02:22:00,VALID,917.254,VALID,0,VALID,91.4004,VALID,-0.0509425,VALID,19.0758,VALID,119,VALID,1.83994,
2003-12-14, 02:23:00,VALID,917.241,VALID,0,VALID,91.4691,VALID,-0.0509425,VALID,19.0823,VALID,113,VALID,1.08403,
2003-12-14, 02:24:00,VALID,917.23,VALID,0,VALID,91.6026,VALID,-0.0339617,VALID,19.0574,VALID,115,VALID,1.74809,
2003-12-14, 02:25:00,VALID,917.231,VALID,0,VALID,91.5543,VALID,-0.0679233,VALID,19.0542,VALID,125,VALID,1.79996,
2003-12-14, 02:26:00,VALID,917.23,VALID,0,VALID,91.7119,VALID,-0.0849042,VALID,19.051,VALID,111,VALID,1.49822,
2003-12-14, 02:27:00,VALID,917.225,VALID,0,VALID,91.8658,VALID,-0.0509425,VALID,19.0438,VALID,87,VALID,1.05888,
2003-12-14, 02:28:00,VALID,917.212,VALID,0,VALID,92.0095,VALID,-0.0169808,VALID,19.0016,VALID,90,VALID,0.996181,
2003-12-14, 02:29:00,VALID,917.204,VALID,0,VALID,92.1646,VALID,-0.0169808,VALID,18.9827,VALID,104,VALID,1.53543,
2003-12-14, 02:30:00,VALID,917.206,VALID,0,VALID,92.2206,VALID,-0.0679233,VALID,18.9534,VALID,111,VALID,1.41309,
2003-12-14, 02:31:00,VALID,917.191,VALID,0,VALID,92.1278,VALID,0,VALID,18.9342,VALID,134,VALID,1.36166,
2003-12-14, 02:32:00,VALID,917.175,VALID,0,VALID,91.773,VALID,-0.0169808,VALID,18.9049,VALID,134,VALID,1.9561,
2003-12-14, 02:33:00,VALID,917.174,VALID,0,VALID,91.7564,VALID,-0.0509425,VALID,18.9275,VALID,83,VALID,1.63762,
2003-12-14, 02:34:00,VALID,917.175,VALID,0,VALID,91.5543,VALID,-0.0509425,VALID,18.9407,VALID,118,VALID,1.73576,
2003-12-14, 02:35:00,VALID,917.162,VALID,0,VALID,91.4665,VALID,-0.0339617,VALID,18.9723,VALID,117,VALID,1.77102,
2003-12-14, 02:36:00,VALID,917.157,VALID,0,VALID,91.3813,VALID,-0.0509425,VALID,19.041,VALID,125,VALID,1.76953,
2003-12-14, 02:37:00,VALID,917.161,VALID,0,VALID,91.3839,VALID,-0.0339617,VALID,19.0438,VALID,127,VALID,1.25254,
2003-12-14, 02:38:00,VALID,917.159,VALID,0,VALID,91.3839,VALID,-0.0679233,VALID,19.0177,VALID,101,VALID,1.34928,
2003-12-14, 02:39:00,VALID,917.17,VALID,0,VALID,91.5911,VALID,-0.0679233,VALID,18.9894,VALID,80,VALID,1.20443,
2003-12-14, 02:40:00,VALID,917.167,VALID,0,VALID,91.6967,VALID,-0.0169808,VALID,18.9471,VALID,83,VALID,1.16079,
2003-12-14, 02:41:00,VALID,917.163,VALID,0,VALID,91.6178,VALID,-0.0849042,VALID,18.9444,VALID,116,VALID,1.86773,
2003-12-14, 02:42:00,VALID,917.166,VALID,0,VALID,91.2936,VALID,-0.0339617,VALID,18.9672,VALID,120,VALID,2.27126,
2003-12-14, 02:43:00,VALID,917.166,VALID,0,VALID,91.3292,VALID,-0.0679233,VALID,18.9993,VALID,116,VALID,2.06659,
2003-12-14, 02:44:00,VALID,917.161,VALID,0,VALID,91.0062,VALID,-0.0509425,VALID,19.0217,VALID,128,VALID,1.80952,
2003-12-14, 02:45:00,VALID,917.151,VALID,0,VALID,90.8727,VALID,-0.0509425,VALID,19.0507,VALID,117,VALID,1.58169,
2003-12-14, 02:46:00,VALID,917.156,VALID,0,VALID,90.7646,VALID,-0.0339617,VALID,19.0443,VALID,114,VALID,1.89443,
2003-12-14, 02:47:00,VALID,917.153,VALID,0,VALID,90.2165,VALID,-0.0169808,VALID,19.0408,VALID,122,VALID,1.89139,
2003-12-14, 02:48:00,VALID,917.139,VALID,0,VALID,89.9419,VALID,-0.0679233,VALID,19.0826,VALID,126,VALID,2.01524,
2003-12-14, 02:49:00,VALID,917.141,VALID,0,VALID,89.9215,VALID,-0.101885,VALID,19.1315,VALID,139,VALID,1.73344,
2003-12-14, 02:50:00,VALID,917.134,VALID,0,VALID,89.7308,VALID,-0.0509425,VALID,19.1608,VALID,98,VALID,1.69313,
2003-12-14, 02:51:00,VALID,917.113,VALID,0,VALID,89.5273,VALID,-0.0339617,VALID,19.1774,VALID,84,VALID,1.40439,
2003-12-14, 02:52:00,VALID,917.12,VALID,0,VALID,89.4587,VALID,-0.0509425,VALID,19.1958,VALID,123,VALID,2.28639,
2003-12-14, 02:53:00,VALID,917.115,VALID,0,VALID,89.1827,VALID,0,VALID,19.2212,VALID,118,VALID,2.44494,
2003-12-14, 02:54:00,VALID,917.095,VALID,0,VALID,89.348,VALID,-0.0169808,VALID,19.218,VALID,94,VALID,1.2927,
2003-12-14, 02:55:00,VALID,917.096,VALID,0,VALID,89.1853,VALID,-0.0169808,VALID,19.1894,VALID,114,VALID,2.1677,
2003-12-14, 02:56:00,VALID,917.104,VALID,0,VALID,89.2438,VALID,0,VALID,19.1988,VALID,79,VALID,0.814024,
2003-12-14, 02:57:00,VALID,917.115,VALID,0,VALID,89.142,VALID,0,VALID,19.1767,VALID,102,VALID,0.918786,
2003-12-14, 02:58:00,VALID,917.105,VALID,0,VALID,89.0581,VALID,0,VALID,19.1663,VALID,109,VALID,1.20712,
2003-12-14, 02:59:00,VALID,917.112,VALID,0,VALID,89.1891,VALID,0,VALID,19.17,VALID,102,VALID,1.36719,
2003-12-14, 03:00:00,VALID,917.128,VALID,0,VALID,89.1903,VALID,0,VALID,19.1735,VALID,108,VALID,1.5218,
2003-12-14, 03:01:00,VALID,917.128,VALID,0,VALID,89.2387,VALID,0,VALID,19.1732,VALID,111,VALID,1.39386,
2003-12-14, 03:02:00,VALID,917.123,VALID,0,VALID,89.2946,VALID,0,VALID,19.1536,VALID,135,VALID,1.46892,
2003-12-14, 03:03:00,VALID,917.11,VALID,0,VALID,89.1293,VALID,0,VALID,19.1573,VALID,112,VALID,1.76545,
2003-12-14, 03:04:00,VALID,917.109,VALID,0,VALID,88.992,VALID,-0.0339617,VALID,19.1568,VALID,111,VALID,1.64608,
2003-12-14, 03:05:00,VALID,917.123,VALID,0,VALID,88.627,VALID,-0.0509425,VALID,19.1866,VALID,117,VALID,1.83249,
2003-12-14, 03:06:00,VALID,917.106,VALID,0,VALID,88.5698,VALID,0,VALID,19.215,VALID,107,VALID,1.67042,
2003-12-14, 03:07:00,VALID,917.101,VALID,0,VALID,88.374,VALID,0,VALID,19.2279,VALID,107,VALID,1.21112,
2003-12-14, 03:08:00,VALID,917.093,VALID,0,VALID,88.1578,VALID,0,VALID,19.2438,VALID,107,VALID,1.61133,
2003-12-14, 03:09:00,VALID,917.08,VALID,0,VALID,88.187,VALID,0,VALID,19.2505,VALID,121,VALID,1.53423,
2003-12-14, 03:10:00,VALID,917.062,VALID,0,VALID,88.1184,VALID,0,VALID,19.2503,VALID,127,VALID,2.31068,
2003-12-14, 03:11:00,VALID,917.055,VALID,0,VALID,88.2481,VALID,0,VALID,19.247,VALID,118,VALID,1.33975,
2003-12-14, 03:12:00,VALID,917.053,VALID,0,VALID,88.3346,VALID,0,VALID,19.254,VALID,124,VALID,1.26162,
2003-12-14, 03:13:00,VALID,917.047,VALID,0,VALID,88.4465,VALID,-0.0509425,VALID,19.2251,VALID,125,VALID,1.52793,
2003-12-14, 03:14:00,VALID,917.04,VALID,0,VALID,88.3231,VALID,-0.0169808,VALID,19.2147,VALID,134,VALID,2.70238,
2003-12-14, 03:15:00,VALID,917.033,VALID,0,VALID,88.2023,VALID,0,VALID,19.254,VALID,126,VALID,2.24199,
2003-12-14, 03:16:00,VALID,917.028,VALID,0,VALID,88.0929,VALID,-0.0509425,VALID,19.2632,VALID,134,VALID,1.96035,
2003-12-14, 03:17:00,VALID,917.008,VALID,0,VALID,87.9963,VALID,-0.0339617,VALID,19.2796,VALID,110,VALID,1.85528,
2003-12-14, 03:18:00,VALID,917.026,VALID,0,VALID,88.0192,VALID,-0.0169808,VALID,19.3017,VALID,104,VALID,1.26997,
2003-12-14, 03:19:00,VALID,917.022,VALID,0,VALID,88.1807,VALID,0,VALID,19.2955,VALID,124,VALID,1.3892,
2003-12-14, 03:20:00,VALID,917.032,VALID,0,VALID,88.3282,VALID,0,VALID,19.2865,VALID,116,VALID,1.54488,
2003-12-14, 03:21:00,VALID,917.032,VALID,0,VALID,88.5342,VALID,0,VALID,19.2376,VALID,118,VALID,1.69023,
2003-12-14, 03:22:00,VALID,917.03,VALID,0,VALID,88.6258,VALID,-0.0169808,VALID,19.2346,VALID,107,VALID,1.20898,
2003-12-14, 03:23:00,VALID,917.032,VALID,0,VALID,88.7326,VALID,0,VALID,19.2214,VALID,109,VALID,1.59412,
2003-12-14, 03:24:00,VALID,917.011,VALID,0,VALID,88.7809,VALID,-0.0169808,VALID,19.2048,VALID,94,VALID,1.44253,
2003-12-14, 03:25:00,VALID,917.011,VALID,0,VALID,88.8292,VALID,0,VALID,19.1891,VALID,115,VALID,1.84139,
2003-12-14, 03:26:00,VALID,917.007,VALID,0,VALID,88.73,VALID,0,VALID,19.1891,VALID,116,VALID,2.25266,
2003-12-14, 03:27:00,VALID,917.007,VALID,0,VALID,88.5596,VALID,-0.0169808,VALID,19.2187,VALID,114,VALID,2.1424,
2003-12-14, 03:28:00,VALID,917.033,VALID,0,VALID,88.4986,VALID,0,VALID,19.2341,VALID,103,VALID,1.39714,
2003-12-14, 03:29:00,VALID,917.038,VALID,0,VALID,88.5723,VALID,-0.0169808,VALID,19.2378,VALID,87,VALID,1.33612,
2003-12-14, 03:30:00,VALID,917.047,VALID,0,VALID,88.3104,VALID,-0.0509425,VALID,19.2177,VALID,78,VALID,1.53356,
2003-12-14, 03:31:00,VALID,917.043,VALID,0,VALID,88.2099,VALID,-0.0169808,VALID,19.2309,VALID,94,VALID,1.58872,
2003-12-14, 03:32:00,VALID,917.044,VALID,0,VALID,88.1171,VALID,-0.0509425,VALID,19.2604,VALID,100,VALID,1.69422,
2003-12-14, 03:33:00,VALID,917.049,VALID,0,VALID,88.2036,VALID,0,VALID,19.2731,VALID,92,VALID,1.48065,
2003-12-14, 03:34:00,VALID,917.05,VALID,0,VALID,88.0217,VALID,0,VALID,19.2602,VALID,101,VALID,2.0754,
2003-12-14, 03:35:00,VALID,917.057,VALID,0,VALID,87.9175,VALID,-0.0169808,VALID,19.2828,VALID,119,VALID,1.34863,
2003-12-14, 03:36:00,VALID,917.067,VALID,0,VALID,87.8857,VALID,0,VALID,19.2863,VALID,126,VALID,1.60292,
2003-12-14, 03:37:00,VALID,917.071,VALID,0,VALID,88.0141,VALID,-0.0509425,VALID,19.2736,VALID,110,VALID,1.45713,